| time (UTC) | temp F | wind direction | speed MPH | gust MPH | rain 1hr in | rain 24hr in | rain mn in | humidity % | barometer mb |
| 20260508024549 | 37 | 279 | 0.0 | 6.0 | 0.00 | 0.09 | 0.09 | 100 | 1006.2 |
| 20260508023047 | 37 | 249 | 1.0 | 6.0 | 0.00 | 0.09 | 0.09 | 100 | 1006.1 |
| 20260508021540 | 37 | 243 | 2.0 | 7.0 | 0.00 | 0.09 | 0.09 | 100 | 1006.1 |
| 20260508020036 | 37 | 278 | 1.0 | 7.0 | 0.00 | 0.09 | 0.09 | 100 | 1006.1 |
| 20260508014534 | 38 | 271 | 3.0 | 7.0 | 0.00 | 0.09 | 0.09 | 100 | 1006.1 |
| 20260508013027 | 39 | 275 | 2.0 | 8.0 | 0.00 | 0.09 | 0.09 | 100 | 1006.2 |
| 20260508011525 | 39 | 282 | 2.0 | 11.0 | 0.00 | 0.09 | 0.09 | 100 | 1006.1 |
| 20260508010035 | 40 | 269 | 4.0 | 10.0 | 0.00 | 0.09 | 0.09 | 100 | 1006.1 |
| 20260508004522 | 40 | 288 | 5.0 | 13.0 | 0.00 | 0.09 | 0.09 | 100 | 1005.8 |
| 20260508003009 | 40 | 246 | 4.0 | 10.0 | 0.00 | 0.09 | 0.09 | 100 | 1005.7 |
| 20260508001505 | 41 | 249 | 4.0 | 11.0 | 0.00 | 0.09 | 0.09 | 100 | 1005.6 |
| 20260508000001 | 41 | 242 | 4.0 | 10.0 | 0.00 | 0.09 | 0.09 | 100 | 1005.4 |
| 20260507234557 | 42 | 244 | 5.0 | 11.0 | 0.00 | 0.10 | 0.09 | 100 | 1005.4 |
| 20260507233054 | 42 | 238 | 4.0 | 11.0 | 0.00 | 0.10 | 0.09 | 100 | 1005.3 |
| 20260507231555 | 43 | 212 | 7.0 | 15.0 | 0.00 | 0.10 | 0.09 | 100 | 1005.2 |
| 20260507230043 | 43 | 257 | 5.0 | 12.0 | 0.00 | 0.10 | 0.09 | 100 | 1005.1 |
| 20260507224554 | 43 | 263 | 4.0 | 10.0 | 0.00 | 0.13 | 0.09 | 100 | 1005.1 |
| 20260507223043 | 43 | 232 | 3.0 | 12.0 | 0.00 | 0.13 | 0.09 | 100 | 1004.8 |
| 20260507221537 | 44 | 221 | 3.0 | 11.0 | 0.00 | 0.13 | 0.09 | 100 | 1004.9 |
| 20260507220031 | 44 | 236 | 5.0 | 13.0 | 0.00 | 0.13 | 0.09 | 100 | 1005.0 |
| 20260507214522 | 43 | 241 | 5.0 | 10.0 | 0.01 | 0.14 | 0.09 | 100 | 1004.9 |
| 20260507213028 | 42 | 245 | 3.0 | 8.0 | 0.01 | 0.14 | 0.09 | 100 | 1004.9 |
| 20260507211513 | 42 | 242 | 2.0 | 6.0 | 0.01 | 0.14 | 0.09 | 100 | 1004.7 |
| 20260507210023 | 43 | 243 | 1.0 | 20.0 | 0.01 | 0.14 | 0.09 | 100 | 1004.7 |
| 20260507204505 | 46 | 235 | 10.0 | 16.0 | 0.00 | 0.13 | 0.08 | 8 | 1004.7 |
| 20260507203109 | 47 | 213 | 7.0 | 14.0 | 0.00 | 0.13 | 0.08 | 5 | 1004.2 |
| 20260507201556 | 46 | 261 | 4.0 | 11.0 | 0.00 | 0.13 | 0.08 | 13 | 1004.0 |
| 20260507200104 | 48 | 300 | 8.0 | 19.0 | 0.00 | 0.13 | 0.08 | 52 | 1004.0 |
| 20260507194546 | 48 | 271 | 5.0 | 11.0 | 0.00 | 0.16 | 0.08 | 56 | 1003.7 |
| 20260507193105 | 50 | 192 | 7.0 | 17.0 | 0.00 | 0.16 | 0.08 | 55 | 1003.8 |
| 20260507191542 | 50 | 242 | 4.0 | 15.0 | 0.00 | 0.16 | 0.08 | 51 | 1003.9 |
| 20260507190038 | 47 | 200 | 4.0 | 12.0 | 0.00 | 0.16 | 0.08 | 46 | 1004.0 |
| 20260507184529 | 47 | 236 | 3.0 | 7.0 | 0.01 | 0.20 | 0.08 | 7 | 1004.2 |
| 20260507183036 | 46 | 210 | 5.0 | 12.0 | 0.01 | 0.20 | 0.08 | 1 | 1004.3 |
| 20260507181520 | 45 | 216 | 2.0 | 7.0 | 0.02 | 0.20 | 0.08 | 100 | 1004.4 |
| 20260507180015 | 43 | 182 | 3.0 | 7.0 | 0.04 | 0.20 | 0.08 | 100 | 1004.6 |
| 20260507174515 | 41 | 196 | 1.0 | 7.0 | 0.04 | 0.28 | 0.07 | 100 | 1004.7 |
| 20260507173016 | 40 | 198 | 2.0 | 11.0 | 0.04 | 0.28 | 0.07 | 100 | 1005.0 |
| 20260507171503 | 41 | 207 | 4.0 | 22.0 | 0.02 | 0.27 | 0.06 | 100 | 1005.1 |
| 20260507170100 | 42 | 246 | 5.0 | 12.0 | 0.02 | 0.25 | 0.04 | 100 | 1004.8 |
| 20260507164604 | 43 | 207 | 3.0 | 13.0 | 0.02 | 0.35 | 0.03 | 100 | 1005.0 |
| 20260507163050 | 43 | 233 | 4.0 | 14.0 | 0.02 | 0.35 | 0.03 | 100 | 1005.0 |
| 20260507161555 | 42 | 235 | 8.0 | 15.0 | 0.02 | 0.35 | 0.03 | 100 | 1004.9 |
| 20260507160059 | 42 | 267 | 7.0 | 13.0 | 0.02 | 0.34 | 0.02 | 100 | 1005.0 |
| 20260507154537 | 42 | 255 | 5.0 | 14.0 | 0.01 | 0.44 | 0.02 | 100 | 1005.2 |
| 20260507153034 | 42 | 249 | 5.0 | 13.0 | 0.01 | 0.44 | 0.02 | 100 | 1005.3 |
| 20260507151529 | 43 | 252 | 4.0 | 10.0 | 0.00 | 0.43 | 0.01 | 100 | 1005.5 |
| 20260507150024 | 43 | 239 | 1.0 | 7.0 | 0.00 | 0.43 | 0.01 | 100 | 1005.5 |
| 20260507144528 | 42 | 253 | 3.0 | 9.0 | 0.00 | 0.55 | 0.01 | 100 | 1005.6 |
| 20260507143015 | 42 | 246 | 0.0 | 4.0 | 0.00 | 0.55 | 0.01 | 100 | 1005.6 |
| 20260507141511 | 42 | 246 | 1.0 | 5.0 | 0.00 | 0.55 | 0.01 | 100 | 1005.5 |
| 20260507140007 | 42 | 246 | 0.0 | 4.0 | 0.00 | 0.55 | 0.01 | 100 | 1005.6 |
| 20260507134502 | 42 | 246 | 1.0 | 5.0 | 0.00 | 0.61 | 0.01 | 100 | 1005.6 |
| 20260507133103 | 41 | 243 | 2.0 | 7.0 | 0.00 | 0.61 | 0.01 | 100 | 1005.6 |
| 20260507131556 | 41 | 239 | 5.0 | 11.0 | 0.00 | 0.61 | 0.01 | 100 | 1005.6 |
| 20260507130048 | 41 | 203 | 1.0 | 10.0 | 0.00 | 0.61 | 0.01 | 100 | 1005.7 |
| 20260507124544 | 41 | 205 | 3.0 | 8.0 | 0.00 | 0.68 | 0.01 | 100 | 1005.7 |
| 20260507123045 | 41 | 214 | 4.0 | 10.0 | 0.00 | 0.68 | 0.01 | 100 | 1005.8 |
| 20260507121538 | 41 | 231 | 2.0 | 7.0 | 0.00 | 0.68 | 0.01 | 100 | 1005.7 |
| 20260507120031 | 41 | 237 | 2.0 | 8.0 | 0.00 | 0.68 | 0.01 | 100 | 1005.8 |
| 20260507114527 | 41 | 233 | 4.0 | 8.0 | 0.00 | 0.69 | 0.01 | 100 | 1005.9 |
| 20260507113027 | 41 | 236 | 2.0 | 8.0 | 0.00 | 0.69 | 0.01 | 100 | 1005.9 |
| 20260507111519 | 41 | 216 | 2.0 | 9.0 | 0.00 | 0.69 | 0.01 | 100 | 1005.8 |
| 20260507110014 | 41 | 221 | 1.0 | 7.0 | 0.00 | 0.69 | 0.01 | 100 | 1005.8 |
| 20260507104511 | 41 | 249 | 1.0 | 4.0 | 0.00 | 0.69 | 0.01 | 100 | 1005.7 |
| 20260507103006 | 40 | 255 | 0.0 | 3.0 | 0.00 | 0.69 | 0.01 | 100 | 1005.5 |
| 20260507101502 | 40 | 255 | 0.0 | 6.0 | 0.00 | 0.69 | 0.01 | 100 | 1005.6 |
| 20260507100057 | 40 | 255 | 1.0 | 5.0 | 0.00 | 0.69 | 0.01 | 100 | 1005.8 |
| 20260507094552 | 40 | 256 | 1.0 | 6.0 | 0.00 | 0.69 | 0.01 | 100 | 1005.8 |
| 20260507093048 | 40 | 258 | 2.0 | 5.0 | 0.00 | 0.69 | 0.01 | 100 | 1005.6 |
| 20260507091544 | 40 | 263 | 2.0 | 7.0 | 0.00 | 0.69 | 0.01 | 100 | 1005.8 |
| 20260507090042 | 40 | 259 | 4.0 | 7.0 | 0.00 | 0.69 | 0.01 | 100 | 1005.8 |
| 20260507084534 | 40 | 254 | 2.0 | 5.0 | 0.00 | 0.69 | 0.01 | 100 | 1005.8 |
| 20260507083031 | 40 | 254 | 1.0 | 4.0 | 0.00 | 0.69 | 0.01 | 100 | 1005.7 |
| 20260507081534 | 40 | 253 | 0.0 | 4.0 | 0.00 | 0.69 | 0.01 | 100 | 1005.8 |
| 20260507080023 | 40 | 253 | 0.0 | 3.0 | 0.00 | 0.69 | 0.01 | 100 | 1005.9 |
| 20260507074520 | 40 | 253 | 1.0 | 5.0 | 0.00 | 0.69 | 0.01 | 100 | 1005.9 |
| 20260507073015 | 40 | 253 | 1.0 | 3.0 | 0.00 | 0.69 | 0.01 | 100 | 1005.9 |
| 20260507071511 | 39 | 253 | 0.0 | 3.0 | 0.00 | 0.69 | 0.01 | 100 | 1005.9 |
| 20260507070010 | 40 | 253 | 0.0 | 3.0 | 0.01 | 0.69 | 0.01 | 100 | 1005.9 |
| 20260507064502 | 40 | 253 | 0.0 | 4.0 | 0.01 | 0.69 | 0.01 | 100 | 1006.0 |
| 20260507063058 | 40 | 253 | 0.0 | 4.0 | 0.01 | 0.69 | 0.01 | 100 | 1006.1 |
| 20260507061554 | 40 | 253 | 0.0 | 5.0 | 0.01 | 0.69 | 0.01 | 100 | 1006.2 |
| 20260507060051 | 40 | 252 | 1.0 | 5.0 | 0.00 | 0.68 | 0.00 | 100 | 1006.5 |
| 20260507054546 | 40 | 252 | 1.0 | 7.0 | 0.00 | 0.68 | 0.00 | 100 | 1006.7 |
| 20260507053041 | 40 | 250 | 2.0 | 6.0 | 0.00 | 0.68 | 0.00 | 100 | 1006.8 |
| 20260507051537 | 40 | 252 | 0.0 | 4.0 | 0.00 | 0.68 | 0.00 | 100 | 1006.9 |
| 20260507050038 | 40 | 250 | 1.0 | 6.0 | 0.00 | 0.68 | 0.00 | 100 | 1007.0 |
| 20260507044528 | 40 | 255 | 1.0 | 5.0 | 0.00 | 0.68 | 0.00 | 100 | 1007.0 |
| 20260507043023 | 40 | 255 | 1.0 | 8.0 | 0.00 | 0.68 | 0.00 | 100 | 1007.0 |
| 20260507041535 | 40 | 268 | 1.0 | 4.0 | 0.00 | 0.68 | 0.00 | 100 | 1007.0 |
| 20260507040014 | 41 | 268 | 1.0 | 7.0 | 0.00 | 0.68 | 0.00 | 100 | 1007.2 |
| 20260507034513 | 41 | 269 | 1.0 | 5.0 | 0.00 | 0.73 | 0.68 | 100 | 1007.2 |
| 20260507033009 | 41 | 270 | 0.0 | 4.0 | 0.00 | 0.73 | 0.68 | 100 | 1007.3 |
| 20260507031502 | 41 | 269 | 2.0 | 5.0 | 0.00 | 0.73 | 0.68 | 100 | 1007.3 |